Stations météo

Publicité
Elphin, Grande-Bretagne (99153): Température de l'air & dewpoint: 10.02.2019 17:00:00 - 16.02.2019 17:00:00 (GMT)Elphin, Grande-Bretagne (99153): Quantités de précipitations: 10.02.2019 17:00:00 - 16.02.2019 17:00:00 (GMT)
Date & Time tt [°C] td [°C] rr [mm]
16.02.2019 17:00:00 7,2 4,2 0,0
16.02.2019 16:00:00 8,1 4,7 0,0
16.02.2019 15:00:00 8,8 4,9 0,0
16.02.2019 14:00:00 8,6 7,0 0,0
16.02.2019 13:00:00 8,4 7,1 0,2
16.02.2019 12:00:00 9,9 7,8 0,0
16.02.2019 11:00:00 9,6 8,0 0,0
16.02.2019 10:00:00 8,1 7,2 0,0
16.02.2019 09:00:00 6,9 6,6 0,0
16.02.2019 08:00:00 6,1 5,8 0,0
16.02.2019 07:00:00 7,6 6,8 0,2
16.02.2019 06:00:00 8,2 6,7 0,0
16.02.2019 05:00:00 8,3 6,4 0,0
16.02.2019 04:00:00 8,9 6,5 0,0
16.02.2019 03:00:00 8,7 5,9 0,0
16.02.2019 02:00:00 8,6 6,5 0,0
16.02.2019 01:00:00 8,1 5,4 0,0
16.02.2019 00:00:00 8,1 6,5 1,6
15.02.2019 23:00:00 8,6 6,8 6,6
15.02.2019 22:00:00 9,4 8,4 2,4
15.02.2019 21:00:00 8,7 8,4 1,8
15.02.2019 20:00:00 9,4 8,1 1,0
15.02.2019 19:00:00 10,3 7,7 0,2
15.02.2019 18:00:00 11,1 7,1 0,0
15.02.2019 17:00:00 10,7 6,9 0,0
15.02.2019 16:00:00 11,1 6,7 0,0
15.02.2019 15:00:00 11,9 6,0 0,0
15.02.2019 14:00:00 13,1 5,0 0,0
15.02.2019 13:00:00 13,1 4,0 0,0
15.02.2019 12:00:00 12,5 4,6 0,0
15.02.2019 11:00:00 12,3 3,7 0,0
15.02.2019 10:00:00 10,6 3,8 0,0
15.02.2019 09:00:00 8,4 1,0 0,0
15.02.2019 08:00:00 7,1 -0,4 0,0
15.02.2019 07:00:00 6,4 0,3 0,0
15.02.2019 06:00:00 4,5 1,6 0,0
15.02.2019 05:00:00 1,7 0,7 0,0
15.02.2019 04:00:00 1,7 0,4 0,0
15.02.2019 03:00:00 5,7 1,0 0,0
15.02.2019 02:00:00 4,8 0,3 0,0
15.02.2019 01:00:00 7,0 1,3 0,0
15.02.2019 00:00:00 4,2 1,8 0,0
14.02.2019 23:00:00 3,1 1,5 0,0
14.02.2019 22:00:00 2,9 2,4 0,0
14.02.2019 21:00:00 4,1 3,6 0,0
14.02.2019 20:00:00 4,8 3,2 0,0
14.02.2019 19:00:00 6,9 5,0 0,0
14.02.2019 18:00:00 8,8 5,6 0,0
14.02.2019 17:00:00 8,7 7,4 0,0
14.02.2019 16:00:00 10,6 8,7 0,0
14.02.2019 15:00:00 10,3 9,4 0,0
14.02.2019 14:00:00 9,9 9,1 0,4
14.02.2019 13:00:00 10,1 9,1 0,2
14.02.2019 12:00:00 9,9 9,0 0,4
14.02.2019 11:00:00 10,1 8,5 0,0
14.02.2019 10:00:00 10,0 8,6 0,2
14.02.2019 09:00:00 9,8 8,5 0,2
14.02.2019 08:00:00 9,6 8,4 0,4
14.02.2019 07:00:00 9,6 8,6 1,2
14.02.2019 06:00:00 9,5 8,7 1,2
14.02.2019 05:00:00 9,3 8,5 1,8
14.02.2019 04:00:00 9,7 8,5 0,4
14.02.2019 03:00:00 10,3 8,4 0,6
14.02.2019 02:00:00 10,7 7,8 0,0
14.02.2019 01:00:00 10,9 7,4 0,0
14.02.2019 00:00:00 11,0 7,3 0,0
13.02.2019 23:00:00 10,8 7,6 0,0
13.02.2019 22:00:00 10,9 7,7 0,0
13.02.2019 21:00:00 11,0 7,3 0,0
13.02.2019 20:00:00 10,6 7,4 0,0
13.02.2019 19:00:00 10,2 7,5 0,2
13.02.2019 18:00:00 10,4 7,1 0,0
13.02.2019 17:00:00 10,7 7,2 0,0
13.02.2019 16:00:00 10,5 7,8 0,0
13.02.2019 15:00:00 10,5 8,0 0,0
13.02.2019 14:00:00 11,1 8,2 0,0
13.02.2019 13:00:00 11,0 7,9 0,0
13.02.2019 12:00:00 10,3 7,9 0,0
13.02.2019 11:00:00 10,4 7,6 0,2
13.02.2019 10:00:00 10,2 7,8 0,0
13.02.2019 09:00:00 9,6 7,0 0,0
13.02.2019 08:00:00 8,1 6,9 0,2
13.02.2019 07:00:00 6,7 5,9 1,2
13.02.2019 06:00:00 6,5 5,4 1,0
13.02.2019 05:00:00 6,8 2,7 0,0
13.02.2019 04:00:00 6,9 1,4 0,0
13.02.2019 03:00:00 5,9 2,0 0,0
13.02.2019 02:00:00 5,3 2,4 0,0
13.02.2019 01:00:00 7,1 3,3 0,0
13.02.2019 00:00:00 7,5 3,5 0,0
12.02.2019 23:00:00 8,2 3,5 0,0
12.02.2019 22:00:00 8,2 3,9 0,0
12.02.2019 21:00:00 8,1 4,0 0,0
12.02.2019 20:00:00 8,3 4,2 0,0
12.02.2019 19:00:00 9,1 4,3 0,0
12.02.2019 18:00:00 9,6 4,7 0,0
12.02.2019 17:00:00 9,5 5,2 0,0
12.02.2019 16:00:00 9,8 5,0 0,0
12.02.2019 15:00:00 10,1 6,9 0,0
12.02.2019 14:00:00 10,7 7,6 0,0
12.02.2019 13:00:00 10,6 8,2 0,2
12.02.2019 12:00:00 10,1 8,7 0,2
12.02.2019 11:00:00 10,0 8,3 0,6
12.02.2019 10:00:00 9,7 7,6 0,0
12.02.2019 09:00:00 9,9 7,1 0,0
12.02.2019 08:00:00 9,6 6,6 0,0
12.02.2019 07:00:00 9,1 6,3 0,0
12.02.2019 06:00:00 9,0 6,6 0,0
12.02.2019 05:00:00 8,5 6,3 0,6
12.02.2019 04:00:00 7,0 5,5 0,6
12.02.2019 03:00:00 6,8 5,0 0,0
12.02.2019 02:00:00 5,8 4,3 0,0
12.02.2019 01:00:00 5,9 4,7 0,0
12.02.2019 00:00:00 5,8 5,5 0,0
11.02.2019 23:00:00 4,6 4,3 1,0
11.02.2019 22:00:00 4,1 3,8 0,6
11.02.2019 21:00:00 3,9 3,1 1,2
11.02.2019 20:00:00 3,2 2,1 0,6
11.02.2019 19:00:00 3,3 1,0 0,0
11.02.2019 18:00:00 2,7 0,2 0,0
11.02.2019 17:00:00 2,7 -0,3 0,0
11.02.2019 16:00:00 4,0 -0,5 0,0
11.02.2019 15:00:00 4,3 0,3 0,0
11.02.2019 14:00:00 4,7 1,1 0,0
11.02.2019 13:00:00 3,9 1,5 0,0
11.02.2019 12:00:00 2,1 1,2 0,0
11.02.2019 11:00:00 0,3 0,0 0,0
11.02.2019 10:00:00 -0,9 -1,1 0,0
11.02.2019 09:00:00 -2,3 -2,6 0,0
11.02.2019 08:00:00 -3,6 -4,1 0,0
11.02.2019 07:00:00 -3,2 -3,7 0,0
11.02.2019 06:00:00 -2,8 -3,2 0,0
11.02.2019 05:00:00 -2,1 -2,7 0,0
11.02.2019 04:00:00 0,6 -0,1 0,0
11.02.2019 03:00:00 -1,0 -1,4 0,0
11.02.2019 02:00:00 0,5 -0,4 0,0
11.02.2019 01:00:00 0,9 -0,5 0,2
11.02.2019 00:00:00 2,2 0,1 0,0
10.02.2019 23:00:00 2,5 0,8 0,0
10.02.2019 22:00:00 3,2 1,9 0,6
10.02.2019 21:00:00 3,5 1,8 0,0
10.02.2019 20:00:00 3,8 2,0 0,0
10.02.2019 19:00:00 4,2 2,7 0,0
10.02.2019 18:00:00 3,8 3,0 0,0
10.02.2019 17:00:00 4,0 3,2 0,2

tt = Température de l'air
td = dewpoint
rr = Quantités de précipitations

stations d'obs. à proximité